Location: York
(31.8935°S, 116.7682°E)
Time: 17:37:12
(UTC+08:00)

deb Explorer IX - Pass Details

Date: 26 September 2022
Orbit: 533 x 1057 km, 38.8° (Epoch: 30 November)

Event Time Altitude Azimuth Distance (km) Brightness Sun altitude
Rises 02:42:50 0° 248° (WSW) 2,701 - -40.1°
Reaches altitude 10° 02:45:05 10° 250° (WSW) 1,795 - -39.7°
Maximum altitude 02:49:07 68° 333° (NNW) 585 - -39.0°
Drops below altitude 10° 02:53:17 10° 55° (NE) 1,856 - -38.2°
Sets 02:55:38 0° 58° (ENE) 2,801 - -37.8°
